Wetbulb
60.24 57.00 55.37 56.59 58.77 57.98 57.28 57.57 52.84 58.24 60.58 58.98 58.58 59.07 60.68 63.98 65.07 65.27 65.63 65.24 66.11 66.70 69.09 70.05 69.77 69.99 68.98 68.16 67.67 66.57 65.72 65.71 65.55 64.12 63.65 63.44 64.02 65.68 65.25 65.86 66.21 65.88 65.67 65.04
57.44 55.27 57.50 58.50 58.49 58.49 58.01 55.73 55.93 58.62 59.41 59.76 58.35 58.43 60.65 62.35 62.58 64.31 65.02 65.11 65.85 66.85 67.76 69.14 70.51 69.94 69.07 67.84 67.48 66.86 66.29 65.19 65.29 64.85 65.10 64.62 64.41 64.54 65.23 65.33 66.54 66.46 66.05 65.62
55.89 56.93 57.76 57.46 57.57 56.50 55.92 55.92 55.88 55.86 58.45 60.50 59.40 56.97 57.69 61.77 63.78 65.31 66.45 66.73 66.34 66.16 66.10 67.17 68.46 70.52 69.36 67.94 67.27 66.54 67.04 65.90 65.77 66.92 65.64 65.51 65.66 66.13 65.20 65.51 65.63 66.70 66.27 65.47
56.98 58.54 56.35 56.55 55.91 57.42 53.94 57.57 57.42 56.41 56.36 53.95 57.78 50.19 52.42 59.69 61.56 62.84 63.68 64.47 64.81 65.50 66.34 65.41 66.04 68.08 69.89 68.69 68.52 67.45 68.17 68.05 67.07 67.85 67.01 65.84 64.10 62.79 64.53 64.23 65.50 65.06 66.01 65.33
56.31 56.74 56.20 55.21 56.26 58.18 56.78 58.49 58.96 57.68 56.58 56.44 55.59 52.30 54.32 55.56 58.44 61.28 63.12 64.63 65.18 65.86 65.74 65.84 68.44 69.82 71.26 69.97 68.65 67.96 69.61 69.26 67.66 68.47 68.26 66.11 65.58 65.97 66.12 64.59 65.93 66.34 66.89 66.04
57.21 59.96 57.93 57.29 57.36 58.79 59.64 58.28 57.60 57.60 54.78 51.17 54.33 52.29 48.16 55.60 58.34 60.68 63.25 64.67 65.13 65.33 65.61 67.25 69.53 70.70 70.41 70.06 68.88 68.19 69.25 69.08 68.84 68.60 68.25 67.15 65.10 65.57 64.64 65.30 63.59 63.81 64.91 64.87
54.77 55.37 57.63 58.71 55.75 59.80 58.21 57.60 50.77 49.78 49.98 47.69 55.44 53.31 55.89 58.68 60.68 61.77 62.68 64.30 65.11 65.14 65.21 66.03 67.91 68.75 69.00 68.45 68.04 68.59 69.28 68.23 69.55 68.59 68.51 67.68 66.91 66.49 65.86 65.66 64.68 64.02 63.25 64.30
51.84 50.78 55.61 58.43 56.34 55.42 57.76 56.73 48.58 46.14 46.82 49.62 54.34 50.00 55.39 60.64 63.46 64.25 64.67 65.33 65.68 64.88 65.39 66.20 67.55 68.81 68.70 68.48 68.59 69.23 68.32 69.60 69.63 68.87 68.86 68.69 67.76 66.13 66.22 66.81 65.12 63.88 63.40 64.43
52.69 51.76 56.97 57.82 58.41 58.06 56.06 54.76 58.88 53.65 54.24 48.80 51.78 55.57 55.82 58.63 60.72 63.05 63.78 64.54 64.81 64.83 64.63 65.50 67.32 68.27 69.24 69.11 69.14 69.10 69.13 69.44 69.36 69.32 69.56 69.35 68.31 67.40 66.80 67.17 67.55 65.70 66.24 64.75
56.10 51.88 55.33 57.17 58.17 58.45 57.19 58.41 52.66 53.55 46.64 45.73 49.35 49.92 51.87 57.66 58.72 61.26 62.48 63.60 63.78 63.75 64.06 64.97 67.19 68.40 69.43 70.07 70.05 69.66 69.72 69.33 69.92 69.86 69.82 69.37 68.78 67.96 67.62 67.84 67.56 67.61 67.28 66.91
57.61 56.24 53.85 55.49 54.56 54.15 56.39 55.56 53.23 56.56 53.26 48.84 46.64 51.10 58.83 59.30 60.91 61.78 62.74 63.94 63.32 62.66 63.30 65.28 66.82 68.32 69.47 69.73 69.88 69.86 69.58 68.87 69.10 70.03 70.09 69.48 68.37 68.31 68.11 67.65 67.49 67.53 67.78 66.97
57.93 57.30 52.63 53.51 57.24 57.62 57.25 56.36 57.11 52.52 51.34 52.04 51.57 52.03 60.56 62.56 62.76 63.35 63.05 64.02 63.59 63.30 64.08 64.96 66.54 68.01 68.81 69.36 69.47 70.30 69.78 68.36 68.73 69.31 69.31 69.17 68.84 68.68 67.98 67.43 67.63 68.18 67.41 67.14
59.46 56.42 52.14 52.89 56.90 59.99 56.67 57.58 57.69 57.30 57.73 53.13 50.80 50.91 60.23 63.07 63.49 64.38 63.65 63.98 62.99 63.63 63.63 64.20 65.14 66.66 67.51 68.92 69.25 69.28 70.07 69.56 69.38 69.48 68.33 68.45 67.97 67.51 66.79 67.01 67.45 67.38 66.81 66.72
62.80 59.40 55.17 50.58 52.90 55.44 52.60 54.35 55.79 55.93 52.43 53.24 52.71 54.48 58.79 61.44 61.78 63.15 63.92 64.00 62.90 63.56 63.99 64.15 65.18 65.76 67.21 68.67 68.84 69.04 69.35 69.43 69.36 68.88 68.37 67.35 66.56 65.46 65.67 66.27 66.90 66.93 66.97 66.58
63.75 56.66 55.59 55.28 54.86 54.42 53.87 53.58 54.56 53.55 55.13 52.92 54.58 55.55 60.08 61.70 62.55 63.25 64.11 63.94 62.33 62.70 63.81 64.43 65.02 65.26 67.01 67.94 68.61 68.52 68.68 69.19 69.14 68.20 66.94 66.45 65.61 66.11 66.67 66.60 66.79 67.16 67.17 66.38
61.71 57.03 56.99 54.66 55.30 54.87 53.72 55.05 54.27 55.09 55.61 56.29 56.79 56.06 61.35 62.83 63.15 63.01 63.49 63.05 62.63 62.79 63.20 64.87 65.55 66.22 66.24 67.49 67.47 68.02 67.93 68.00 68.34 66.51 65.44 65.19 65.30 65.69 65.90 66.03 66.68 66.82 64.98 63.68
59.72 58.60 55.77 52.81 55.80 54.98 52.15 55.05 54.38 56.16 57.56 58.48 55.56 58.85 62.06 61.37 61.96 62.55 62.90 63.17 63.40 63.71 64.27 64.56 65.33 66.47 67.20 67.29 67.84 67.50 67.37 67.40 66.34 65.62 65.33 64.90 64.94 64.69 65.68 66.02 65.35 62.93 62.65 63.19
59.74 59.38 57.86 54.05 55.83 48.65 57.06 60.50 57.76 57.03 58.21 59.91 60.38 61.00 61.63 62.23 63.44 63.24 64.14 64.54 64.67 65.03 65.35 65.76 66.25 67.41 67.95 68.26 67.71 67.30 66.71 66.42 65.99 65.55 65.65 65.00 64.55 64.39 64.93 64.16 62.31 62.39 62.64 61.60
62.90 59.65 54.26 51.91 51.81 54.27 55.66 60.25 59.02 57.53 56.82 62.11 61.69 62.32 62.82 63.93 63.65 64.36 66.17 66.31 66.21 66.64 67.13 67.37 67.80 68.14 68.29 67.47 67.26 66.71 65.83 65.44 65.26 66.08 64.93 63.75 63.25 62.74 61.62 61.15 61.51 62.16 62.06 61.40
60.64 61.43 56.43 54.35 50.56 47.80 58.46 60.77 62.40 61.56 54.74 63.65 63.53 62.82 62.81 63.13 57.89 60.05 66.38 66.19 66.44 67.41 67.94 67.84 67.35 67.78 67.52 67.40 67.44 66.52 65.97 65.69 65.57 65.49 64.48 62.29 60.87 60.73 60.34 60.90 61.06 61.69 61.48 60.34
56.29 57.33 54.24 52.75 52.44 55.29 60.77 61.50 62.65 53.10 57.86 64.30 64.35 63.75 63.02 61.33 62.82 65.84 67.16 66.99 67.33 67.85 67.61 68.36 68.00 67.16 67.89 68.07 67.58 66.32 66.09 65.72 65.77 65.00 61.52 60.70 61.25 60.35 60.80 60.72 61.35 60.94 60.30 59.76
54.49 54.06 53.73 55.45 52.45 50.29 62.78 61.78 58.08 64.08 65.73 64.78 64.36 64.41 63.81 64.69 65.09 65.84 66.28 66.71 67.02 67.30 67.88 68.32 67.80 67.49 67.90 67.69 67.23 65.45 65.67 65.89 64.97 61.27 59.69 59.93 60.55 59.27 59.78 60.16 60.35 59.69 59.40 59.13
54.10 59.82 58.48 58.16 57.44 62.71 65.06 63.93 65.64 65.81 64.55 64.35 64.97 65.28 65.11 64.62 64.76 65.51 66.14 66.68 66.92 67.79 68.37 68.53 66.93 66.90 67.06 66.99 66.39 65.00 64.79 64.51 61.12 59.42 59.22 59.55 59.19 59.58 60.25 59.92 59.50 58.43 59.07 56.62
60.38 62.02 57.37 59.52 59.86 60.92 62.05 63.60 65.02 65.28 65.36 65.98 65.75 65.68 65.58 64.63 65.15 65.39 66.06 65.90 66.21 67.01 68.00 67.38 66.60 66.16 65.20 65.09 64.69 64.89 64.18 61.09 58.79 58.40 58.58 59.10 58.78 59.07 59.48 59.07 58.43 57.21 56.08 54.99
61.71 62.75 59.14 58.74 60.83 62.26 62.55 64.28 65.23 65.24 65.93 65.37 66.08 65.97 65.37 65.47 65.61 66.22 65.72 65.61 66.30 67.40 67.77 67.45 66.27 64.99 63.69 63.21 62.87 61.71 60.03 59.08 58.95 58.50 58.40 58.66 58.83 57.92 59.56 58.80 57.99 57.07 59.00 53.34
60.37 59.47 57.21 56.44 63.51 63.49 63.45 65.94 65.87 64.72 64.76 65.44 65.34 64.74 65.82 65.88 65.90 66.44 65.97 66.88 66.80 67.14 67.79 66.92 65.76 64.59 61.43 61.39 60.11 59.30 60.41 59.32 59.17 59.58 57.79 57.45 57.61 58.21 57.83 57.10 57.51 46.36 46.47 44.31
MSLP
1005.22 1004.41 1003.94 1004.60 1004.59 1004.44 1004.12 1003.84 1006.06 1003.04 1003.99 1004.08 1003.82 1003.93 1004.60 1005.32 1005.87 1006.46 1007.02 1007.04 1007.30 1007.58 1008.02 1008.68 1009.61 1010.84 1012.30 1014.00 1015.26 1016.26 1016.54 1017.01 1017.47 1017.78 1017.66 1016.96 1017.00 1016.52 1016.73 1016.80 1017.16 1017.48 1017.41 1017.55
1005.28 1004.16 1004.70 1004.74 1004.62 1004.62 1004.97 1003.69 1003.65 1003.42 1003.88 1004.30 1004.07 1004.19 1004.56 1005.00 1005.34 1005.66 1006.04 1006.74 1007.04 1007.18 1007.44 1008.11 1008.76 1010.06 1011.56 1013.61 1015.11 1016.33 1016.78 1017.00 1017.36 1017.57 1017.12 1016.82 1016.72 1016.65 1016.54 1016.54 1016.94 1017.38 1017.54 1017.57
1004.89 1004.51 1005.17 1004.66 1003.98 1004.26 1005.84 1004.31 1004.23 1004.07 1003.56 1004.00 1003.88 1005.84 1005.70 1005.08 1004.98 1005.50 1006.18 1006.55 1006.64 1006.96 1007.28 1007.64 1007.98 1009.12 1010.86 1012.95 1014.75 1016.15 1016.82 1017.22 1017.13 1017.08 1017.31 1017.23 1017.13 1017.10 1016.52 1016.23 1016.40 1016.52 1017.10 1017.44
1004.87 1004.47 1005.03 1004.47 1004.06 1004.46 1004.48 1004.58 1004.40 1004.11 1003.63 1003.27 1003.89 1006.36 1008.29 1004.74 1005.02 1005.28 1005.68 1006.23 1006.79 1007.28 1007.61 1008.00 1008.30 1008.28 1010.36 1012.54 1014.54 1015.84 1016.60 1016.98 1016.97 1016.99 1016.82 1016.78 1016.50 1016.15 1016.27 1016.40 1016.40 1016.99 1017.12 1017.32
1004.86 1004.30 1004.46 1004.52 1004.33 1004.94 1004.48 1005.02 1005.11 1005.12 1004.41 1004.35 1004.45 1004.66 1008.86 1007.09 1004.84 1005.02 1005.84 1006.77 1007.30 1007.44 1008.02 1008.67 1009.00 1008.69 1009.87 1012.14 1014.05 1015.24 1015.86 1016.53 1016.79 1016.78 1016.84 1016.69 1016.62 1015.95 1016.20 1016.49 1016.90 1016.98 1017.12 1017.07
1005.41 1004.72 1005.13 1004.77 1004.90 1005.11 1005.22 1004.88 1005.94 1005.56 1006.39 1005.41 1004.64 1004.56 1008.50 1005.69 1005.31 1004.96 1005.80 1006.88 1007.61 1007.71 1008.11 1008.85 1010.06 1010.27 1011.24 1012.50 1013.80 1014.68 1015.21 1016.00 1016.42 1016.61 1016.80 1016.83 1016.76 1016.65 1016.48 1016.64 1016.62 1016.05 1016.20 1016.21
1005.47 1004.83 1004.60 1004.84 1004.88 1005.07 1007.09 1005.88 1004.60 1004.82 1004.39 1004.05 1004.46 1004.42 1004.57 1004.64 1004.99 1005.34 1006.03 1007.07 1007.80 1007.86 1008.40 1008.99 1009.66 1010.75 1011.78 1012.85 1013.74 1014.18 1014.82 1015.62 1016.00 1016.33 1016.45 1016.67 1016.76 1016.88 1016.86 1016.83 1016.04 1016.39 1015.84 1015.82
1004.95 1003.86 1003.89 1004.10 1004.78 1004.66 1005.84 1005.39 1007.45 1006.09 1004.64 1004.47 1005.04 1004.81 1004.66 1004.67 1005.32 1005.81 1006.18 1007.49 1008.12 1008.31 1008.64 1009.38 1010.01 1010.68 1011.47 1012.60 1013.40 1013.84 1014.52 1014.72 1015.30 1015.74 1016.03 1016.26 1016.48 1016.34 1016.25 1016.34 1016.50 1016.08 1016.06 1015.87
1005.23 1004.42 1004.24 1004.69 1004.76 1005.16 1005.04 1005.23 1006.48 1005.90 1005.02 1006.57 1004.23 1005.50 1006.46 1005.89 1004.74 1005.18 1005.96 1007.37 1008.31 1008.59 1008.90 1009.19 1010.12 1010.80 1011.55 1012.38 1013.04 1013.39 1013.51 1014.02 1014.66 1015.07 1015.54 1015.88 1016.22 1016.33 1016.06 1016.32 1016.50 1015.94 1016.21 1015.81
1006.08 1005.54 1004.67 1004.85 1005.50 1005.29 1005.32 1005.16 1005.54 1005.69 1005.26 1005.18 1004.59 1005.96 1006.39 1005.39 1005.08 1005.43 1006.11 1007.24 1008.17 1008.38 1008.82 1009.35 1009.92 1011.04 1011.46 1012.16 1012.87 1013.25 1013.33 1013.68 1014.06 1014.49 1014.97 1015.31 1015.74 1015.96 1016.07 1016.21 1016.22 1016.14 1016.07 1016.02
1006.61 1006.47 1005.37 1005.49 1005.09 1004.59 1005.34 1005.31 1008.00 1005.83 1006.84 1005.74 1006.48 1005.28 1006.16 1006.19 1005.58 1006.12 1006.58 1007.52 1008.00 1008.16 1008.68 1009.35 1009.86 1010.86 1011.38 1011.81 1012.16 1012.76 1013.00 1013.26 1013.55 1014.04 1014.30 1014.81 1015.24 1015.46 1015.72 1015.75 1015.75 1015.69 1015.73 1015.73
1007.03 1007.04 1006.14 1005.26 1004.80 1005.04 1005.22 1005.46 1005.82 1005.96 1006.03 1005.83 1006.18 1006.54 1007.04 1006.45 1006.17 1006.66 1007.14 1007.64 1008.43 1008.48 1008.85 1009.11 1010.22 1010.72 1011.29 1011.62 1011.80 1012.39 1012.95 1013.05 1013.18 1013.75 1014.09 1014.46 1014.93 1015.12 1015.35 1015.42 1015.46 1015.50 1015.42 1015.31
1007.79 1007.24 1006.43 1006.26 1006.41 1006.36 1005.28 1005.41 1006.20 1006.64 1007.00 1006.36 1005.80 1006.04 1005.28 1005.64 1006.23 1007.06 1007.43 1007.78 1008.14 1008.85 1009.30 1009.36 1009.56 1010.41 1010.86 1011.51 1012.04 1012.34 1012.85 1012.99 1013.03 1013.54 1013.85 1014.08 1014.66 1015.07 1015.16 1015.20 1015.30 1015.26 1015.12 1014.95
1008.55 1007.48 1006.80 1006.34 1005.86 1005.66 1005.22 1005.62 1006.12 1006.56 1006.66 1006.01 1005.51 1005.66 1005.36 1006.00 1006.54 1006.94 1007.48 1007.97 1008.19 1008.77 1009.56 1009.74 1009.75 1010.18 1010.99 1011.57 1012.15 1012.43 1012.68 1012.71 1012.79 1012.98 1013.17 1013.84 1014.40 1014.60 1014.80 1014.89 1014.95 1014.90 1014.80 1014.78
1008.40 1007.54 1007.11 1006.32 1006.38 1006.06 1005.67 1005.67 1005.67 1006.00 1006.23 1006.30 1006.39 1005.97 1006.42 1006.80 1007.22 1007.39 1008.07 1008.17 1008.87 1008.57 1009.30 1009.79 1009.93 1010.18 1010.73 1011.48 1012.04 1012.44 1012.64 1012.88 1012.80 1013.11 1013.36 1013.65 1014.14 1014.31 1014.33 1014.46 1014.60 1014.76 1014.91 1014.85
1008.28 1007.76 1007.51 1006.84 1006.51 1006.35 1005.88 1005.64 1005.99 1006.10 1006.16 1006.34 1006.56 1006.56 1006.92 1007.04 1006.89 1007.28 1007.48 1008.38 1008.40 1008.33 1009.06 1009.76 1010.17 1010.50 1010.80 1011.34 1011.69 1012.39 1012.73 1013.11 1013.18 1013.29 1013.19 1013.48 1013.53 1013.72 1014.06 1014.46 1014.37 1014.90 1015.10 1015.16
1008.12 1007.75 1007.68 1006.50 1006.23 1006.24 1005.73 1005.11 1005.83 1006.18 1006.47 1006.74 1007.04 1007.26 1007.29 1007.50 1007.55 1007.75 1007.60 1007.88 1008.08 1008.67 1009.05 1009.38 1009.94 1010.51 1011.06 1011.45 1011.96 1012.36 1012.90 1013.27 1013.46 1013.32 1013.12 1013.23 1013.51 1013.60 1013.82 1014.26 1014.62 1015.06 1015.34 1015.51
1008.16 1008.30 1008.08 1007.24 1006.79 1005.83 1005.45 1006.46 1006.77 1007.25 1007.32 1007.25 1007.68 1007.82 1008.06 1007.99 1008.04 1007.78 1007.91 1008.67 1008.94 1008.99 1009.10 1009.24 1009.76 1010.79 1011.30 1011.54 1011.91 1012.53 1012.87 1013.19 1013.24 1013.23 1013.08 1013.24 1013.45 1013.66 1014.07 1014.66 1015.02 1015.28 1015.53 1015.65
1008.69 1008.65 1008.15 1007.68 1006.86 1005.93 1005.53 1007.36 1007.70 1008.04 1008.20 1008.29 1008.77 1008.90 1008.79 1008.74 1008.72 1008.64 1009.15 1009.58 1009.64 1009.75 1009.72 1009.66 1009.77 1010.60 1011.52 1011.72 1012.14 1012.36 1012.68 1012.90 1012.93 1013.03 1013.35 1013.58 1013.78 1014.00 1014.30 1014.75 1015.14 1015.32 1015.50 1015.73
1008.65 1008.90 1008.76 1007.69 1007.31 1006.74 1007.60 1008.37 1008.71 1008.84 1008.74 1009.89 1009.98 1009.84 1009.70 1009.51 1008.93 1008.54 1009.38 1009.51 1009.56 1009.96 1009.73 1009.92 1010.41 1011.10 1011.66 1011.81 1012.26 1012.50 1012.52 1012.57 1012.84 1013.29 1013.67 1013.96 1014.32 1014.48 1014.71 1014.99 1015.27 1015.48 1015.50 1015.57
1008.15 1008.40 1007.90 1007.46 1007.25 1007.41 1008.48 1008.82 1009.04 1009.22 1010.74 1010.59 1010.55 1010.48 1010.38 1010.17 1010.20 1009.99 1009.86 1009.62 1009.67 1009.73 1009.84 1010.14 1010.81 1011.32 1011.85 1012.23 1012.48 1012.52 1012.61 1012.90 1013.23 1013.64 1013.98 1014.14 1014.58 1014.98 1015.16 1015.31 1015.50 1015.67 1015.59 1015.55
1008.19 1007.90 1007.42 1007.73 1007.94 1008.12 1009.12 1009.02 1009.51 1010.57 1010.81 1010.84 1010.84 1010.86 1010.77 1010.62 1010.45 1010.25 1010.03 1009.86 1009.74 1009.60 1009.68 1010.24 1010.88 1011.25 1012.37 1012.79 1012.94 1013.08 1013.00 1013.62 1013.80 1013.89 1014.23 1014.44 1014.80 1014.94 1014.97 1015.47 1015.67 1015.67 1015.56 1015.36
1008.66 1008.54 1008.76 1008.38 1008.42 1009.10 1009.45 1009.89 1010.28 1010.75 1010.91 1010.98 1011.22 1011.16 1010.97 1010.77 1010.54 1010.44 1010.13 1009.91 1009.83 1009.90 1009.94 1010.09 1011.04 1011.85 1012.90 1012.86 1012.98 1012.93 1013.89 1014.08 1014.26 1014.22 1014.46 1014.76 1014.98 1014.98 1015.18 1015.41 1015.46 1015.23 1015.21 1014.94
1008.53 1009.10 1008.93 1008.98 1008.58 1008.75 1009.11 1009.65 1010.42 1010.82 1011.11 1011.27 1011.14 1011.14 1011.05 1010.81 1010.71 1010.50 1010.18 1010.26 1010.34 1010.37 1010.61 1011.06 1011.63 1012.55 1013.06 1013.52 1013.90 1013.78 1014.26 1014.56 1014.66 1014.53 1014.62 1014.92 1015.03 1015.05 1015.04 1014.78 1014.75 1014.70 1014.58 1014.61
1007.99 1009.03 1008.99 1009.10 1008.90 1008.78 1009.03 1009.92 1010.77 1010.95 1011.07 1011.10 1011.12 1011.05 1010.93 1010.84 1010.80 1010.64 1010.30 1010.43 1010.64 1010.92 1011.25 1011.83 1012.20 1012.92 1013.63 1014.06 1014.27 1014.96 1015.16 1014.82 1014.67 1014.88 1014.58 1014.80 1014.72 1015.01 1014.73 1015.02 1014.74 1014.73 1015.02 1015.46
1007.86 1008.12 1008.73 1008.77 1009.41 1009.80 1009.74 1010.16 1010.82 1010.91 1010.94 1011.14 1011.24 1011.05 1011.00 1010.95 1010.78 1010.86 1010.80 1011.00 1011.27 1011.20 1011.77 1012.43 1012.84 1013.38 1014.15 1014.46 1015.01 1015.01 1015.02 1014.96 1014.88 1014.85 1014.52 1014.40 1014.17 1014.04 1014.23 1014.30 1014.39 1014.91 1015.12 1015.30
Wind_Speed
4 14 12 10 9 8 8 16 22 11 9 13 11 5 11 9 10 10 7 4 3 3 6 11 11 11 12 13 12 12 11 10 6 2 6 5 6 2 4 4 3 4 4 5
12 8 8 8 4 9 24 16 13 5 3 9 6 4 8 8 4 8 9 5 2 1 3 6 12 12 15 15 13 10 9 10 8 6 3 1 3 3 4 4 3 4 5 5
10 5 3 11 11 6 10 13 10 10 13 6 6 17 17 8 12 11 10 6 4 6 8 6 6 17 16 16 15 11 10 9 8 4 3 3 3 5 7 5 6 4 3 5
8 2 5 13 6 10 5 11 12 9 13 6 12 8 23 6 14 13 9 10 11 9 9 11 9 5 16 16 13 12 10 9 8 7 4 2 5 4 6 4 4 4 3 4
13 8 7 10 10 8 12 10 17 22 24 10 12 5 6 32 10 12 9 9 9 8 11 13 13 14 17 15 13 12 10 9 7 8 6 4 4 0 1 4 2 3 4 4
13 17 4 15 7 7 11 17 8 18 9 5 10 11 2 3 10 9 9 11 7 9 11 10 9 9 10 11 11 11 9 9 9 7 7 4 2 3 5 5 5 3 2 3
17 19 16 9 15 7 22 24 9 8 3 5 16 4 5 12 12 10 7 11 9 9 11 10 8 10 8 10 11 11 11 8 10 9 7 6 4 3 4 5 2 4 3 2
16 15 21 12 12 13 17 10 10 15 12 13 6 6 14 12 10 8 8 9 8 9 10 10 8 8 9 11 12 9 11 11 10 10 8 6 5 6 5 6 5 6 5 3
12 9 4 5 4 5 2 7 17 11 12 5 9 15 19 25 10 9 9 8 7 7 7 7 8 5 7 9 11 11 9 6 9 10 8 7 6 5 5 3 3 5 2 4
8 11 2 8 7 12 11 11 11 7 6 10 12 10 5 14 12 10 7 8 5 4 7 6 7 6 4 7 9 11 8 7 7 8 9 8 7 6 6 6 7 7 6 6
10 6 6 2 11 14 10 8 5 6 9 11 12 7 14 13 10 9 7 7 6 5 8 5 7 5 2 7 11 10 8 5 7 6 7 7 6 5 6 7 8 8 7 7
10 5 11 16 4 4 6 11 11 7 12 13 10 8 24 9 11 8 4 5 7 5 8 8 8 3 4 3 5 8 6 6 5 4 5 6 5 5 6 7 8 8 8 8
5 8 11 10 16 18 7 8 7 4 8 10 12 3 2 12 10 8 9 6 4 3 5 6 7 4 5 5 5 6 7 8 4 4 5 6 3 4 6 5 6 7 7 7
2 5 9 4 10 6 6 2 1 5 7 10 10 17 15 16 13 9 2 4 6 5 7 6 4 6 6 5 5 5 5 5 7 6 1 3 3 2 3 3 4 5 5 6
4 8 7 6 9 7 5 6 7 5 7 7 12 12 15 12 12 10 6 5 4 5 5 4 3 5 8 6 5 4 4 3 3 1 3 2 3 5 4 3 4 4 5 5
3 7 7 13 4 7 9 7 3 6 5 9 12 9 10 12 10 9 9 2 12 3 3 1 2 2 6 7 7 5 4 4 2 2 3 2 5 4 3 3 2 1 5 4
5 7 5 13 4 8 12 2 6 10 10 10 10 13 12 13 12 12 11 8 8 5 6 5 2 3 4 5 6 7 6 5 4 4 3 3 3 5 0 4 5 4 3 4
5 5 8 9 11 13 10 7 6 7 9 4 9 10 12 14 15 15 8 10 10 10 8 5 5 4 5 7 6 6 7 5 5 3 3 3 4 5 3 2 2 2 3 3
4 7 9 10 10 15 9 11 8 7 11 10 11 13 14 14 15 18 9 6 8 8 10 7 1 7 6 6 7 7 5 5 5 1 4 3 4 3 1 2 1 1 2 1
5 4 7 9 6 12 11 6 4 4 6 10 11 12 14 15 12 10 13 13 11 14 7 6 4 6 7 7 6 6 6 5 1 2 2 3 3 2 2 1 1 1 2 2
8 8 11 10 7 2 7 5 1 8 7 10 10 12 13 11 12 13 13 12 11 9 8 4 5 8 6 6 6 5 3 2 2 1 1 1 2 1 1 1 1 2 2 3
7 6 8 5 6 5 7 4 6 7 8 8 10 11 12 13 12 12 13 14 13 12 7 6 7 5 4 4 4 3 1 1 1 0 1 2 1 4 4 1 2 3 3 8
6 4 7 5 6 2 2 3 4 4 5 7 8 10 10 11 11 13 12 11 10 9 10 5 5 8 4 4 5 3 3 4 2 1 1 1 2 1 2 3 4 7 7 6
7 5 5 6 4 4 4 2 0 3 5 6 7 9 10 11 11 12 12 8 9 5 2 4 5 7 6 4 3 2 4 4 4 3 2 2 3 2 3 5 5 5 4 4
7 5 4 9 13 10 3 4 4 5 5 5 7 8 9 10 11 13 11 7 7 3 2 3 4 4 4 2 5 4 5 4 5 3 3 3 5 4 4 6 5 5 0 3
6 5 7 8 8 5 7 7 5 5 4 6 9 10 10 10 10 11 9 7 6 3 2 3 3 4 3 2 2 1 5 7 4 4 6 5 5 4 6 6 6 10 7 11
Wind_Direction
222 286 36 357 343 329 293 44 312 62 29 326 37 18 74 99 144 150 180 168 216 282 226 213 205 191 181 172 182 175 155 169 177 183 218 146 232 210 234 230 228 284 291 332
251 264 33 319 317 31 330 342 15 45 43 296 8 293 111 104 97 80 90 89 87 262 214 225 204 190 192 179 179 189 180 180 175 201 225 248 327 299 330 329 7 292 300 289
285 351 326 286 289 341 166 345 358 337 298 239 33 65 305 147 106 108 116 152 110 45 8 350 297 185 189 175 179 192 193 180 178 195 204 190 230 223 223 200 214 182 214 267
256 21 261 281 319 351 48 5 312 341 302 25 313 111 320 192 121 92 65 50 39 26 24 11 338 246 179 171 170 191 193 190 185 189 215 289 321 334 22 294 44 329 291 286
269 242 289 293 25 343 328 317 31 328 311 50 334 12 69 287 71 95 82 64 35 31 44 19 5 347 145 156 168 191 187 186 199 188 259 206 238 282 323 341 89 240 241 241
262 291 287 283 333 271 307 283 135 285 357 236 285 326 326 274 43 47 76 74 35 25 37 59 51 52 120 142 161 187 178 188 206 202 205 236 307 315 334 15 315 281 305 242
273 252 258 223 273 58 342 297 321 282 271 5 17 303 70 55 50 42 57 69 46 26 47 50 68 97 128 146 163 176 180 180 202 204 202 205 217 233 241 265 324 319 311 327
272 241 218 203 242 286 214 341 117 276 330 12 262 266 60 49 105 90 94 77 46 34 56 57 66 119 145 151 167 182 176 208 189 206 205 205 201 228 235 196 336 316 327 318
284 268 119 342 303 280 182 246 262 324 305 193 339 75 33 292 57 91 88 75 47 45 55 77 91 77 116 159 173 177 202 178 189 203 205 204 211 243 309 313 279 269 254 280
270 272 273 141 244 243 263 308 294 201 277 337 329 95 177 22 29 27 81 69 49 43 58 51 82 96 160 169 168 196 164 173 202 208 196 202 210 228 245 252 261 283 287 279
239 257 270 223 228 259 210 235 302 286 63 309 314 32 16 354 41 20 36 38 38 24 57 44 94 102 146 185 174 197 179 172 175 199 192 205 218 230 248 261 272 273 278 281
230 273 264 261 98 268 271 307 330 317 335 334 316 35 342 50 39 24 1 74 31 18 29 50 73 65 135 189 161 171 214 205 126 145 191 207 232 251 265 275 280 275 271 281
161 226 251 5 326 333 258 9 326 280 272 271 298 51 218 74 60 38 350 20 156 30 31 36 70 69 117 144 181 197 208 231 234 173 192 180 222 259 272 274 275 276 285 287
333 273 291 299 354 356 323 292 180 318 280 336 338 347 9 19 10 1 320 339 14 47 33 34 65 92 94 130 169 183 192 226 209 245 190 109 221 232 265 263 263 276 305 314
279 286 307 340 332 305 330 303 302 245 288 321 332 327 15 6 350 18 340 360 297 220 150 345 44 92 125 133 148 151 168 195 268 201 205 168 197 246 259 303 308 343 344 329
186 290 300 299 194 274 283 285 307 270 297 296 351 311 12 353 349 349 332 124 268 339 340 130 229 218 118 151 167 151 148 139 167 195 272 212 252 309 9 285 333 13 11 15
282 311 277 279 147 293 275 107 359 348 331 11 323 348 350 346 343 342 316 330 340 335 300 286 276 190 155 161 150 167 147 152 185 241 231 318 331 255 298 6 28 17 49 55
284 271 292 286 288 265 84 55 35 321 295 323 328 356 348 347 346 317 352 350 331 326 309 269 198 171 174 180 162 132 160 172 196 238 307 340 327 6 15 35 42 75 60 53
276 280 282 278 270 287 112 54 28 3 316 30 359 348 337 346 328 54 40 357 330 324 314 296 267 169 180 177 160 172 176 181 213 61 348 356 353 323 358 96 88 41 118 162
194 243 270 263 285 288 71 75 36 357 248 20 356 345 340 338 317 350 354 330 341 326 282 284 228 161 192 171 179 181 193 190 180 55 12 12 1 346 70 81 35 132 178 208
209 234 246 253 252 91 67 61 354 264 38 338 346 340 339 325 327 324 316 305 318 324 300 240 215 205 189 178 197 198 191 187 106 112 5 84 96 69 49 35 145 214 249 332
257 254 243 209 275 265 32 261 342 13 334 339 349 342 327 332 327 326 329 324 316 305 276 192 233 192 153 197 222 216 196 30 179 95 236 143 126 308 101 143 216 259 309 260
249 326 340 327 16 109 140 341 356 335 318 351 336 341 334 329 333 332 327 329 334 324 296 166 199 133 215 197 216 188 45 284 259 182 226 221 252 206 148 222 236 248 208 252
192 197 256 322 191 325 328 18 175 4 344 319 334 331 329 330 329 323 327 353 335 351 300 142 184 174 175 199 335 30 40 282 269 219 199 243 257 250 231 254 212 261 270 290
43 158 246 281 263 271 153 89 7 325 297 333 341 332 325 319 321 319 330 338 335 0 157 211 210 151 190 138 71 52 261 254 251 242 253 251 229 207 235 250 311 297 223 338
259 251 265 310 24 325 315 53 348 309 343 335 336 330 332 323 324 323 330 357 330 324 150 192 208 193 132 222 162 229 245 254 251 235 230 243 276 223 233 255 229 218 245 186